This is the latest recevied weather packets stored in our database for station/object N5JXS. If no packets are shown the sender has not sent any weather packets the latest 10 day(s).
| Time | Temp. | Humidity | Pressure | Rain* | Wind** | Luminosity | Snow |
|---|---|---|---|---|---|---|---|
| 1777707713 | 1.67° C | 51% | 1025.3 hPa | 0 mm | - | 0 W/m² | - |
| 1777707409 | 1.67° C | 47% | 1025.6 hPa | 0 mm | - | 0 W/m² | - |
| 1777707105 | 2.22° C | 48% | 1025.7 hPa | 0 mm | - | 0 W/m² | - |
| 1777706803 | 2.22° C | 47% | 1025.6 hPa | 0 mm | - | 0 W/m² | - |
| 1777706501 | 2.22° C | 47% | 1025.7 hPa | 0 mm | - | 0 W/m² | - |
| 1777706198 | 2.22° C | 47% | 1025.7 hPa | 0 mm | - | 0 W/m² | - |
| 1777705896 | 2.22° C | 46% | 1025.6 hPa | 0 mm | - | 0 W/m² | - |
| 1777705594 | 2.22° C | 46% | 1025.7 hPa | 0 mm | - | 0 W/m² | - |
| 1777705292 | 2.22° C | 46% | 1025.5 hPa | 0 mm | - | 0 W/m² | - |
| 1777704990 | 2.22° C | 45% | 1025.6 hPa | 0 mm | - | 0 W/m² | - |
| 1777704687 | 2.22° C | 46% | 1025.8 hPa | 0 mm | - | 0 W/m² | - |
| 1777704386 | 2.22° C | 47% | 1025.3 hPa | 0 mm | - | 0 W/m² | - |
| 1777704083 | 2.78° C | 47% | 1025.6 hPa | 0 mm | - | 0 W/m² | - |
| 1777703781 | 2.78° C | 45% | 1025.7 hPa | 0 mm | - | 0 W/m² | - |
| 1777703478 | 2.78° C | 45% | 1025.6 hPa | 0 mm | - | 0 W/m² | - |
| 1777703175 | 2.78° C | 44% | 1025.6 hPa | 0 mm | - | 0 W/m² | - |
| 1777702872 | 2.78° C | 46% | 1025.7 hPa | 0 mm | - | 0 W/m² | - |
| 1777702570 | 2.78° C | 45% | 1025.6 hPa | 0 mm | - | 0 W/m² | - |
| 1777702268 | 2.78° C | 45% | 1025.5 hPa | 0 mm | - | 0 W/m² | - |
| 1777701968 | 2.78° C | 44% | 1025.7 hPa | 0 mm | - | 0 W/m² | - |
| 1777701665 | 3.33° C | 44% | 1025.5 hPa | 0 mm | - | 0 W/m² | - |
| 1777701362 | 3.33° C | 45% | 1025.5 hPa | 0 mm | - | 0 W/m² | - |
| 1777701061 | 2.78° C | 43% | 1025.6 hPa | 0 mm | - | 0 W/m² | - |
| 1777700759 | 3.33° C | 45% | 1025.3 hPa | 0 mm | - | 0 W/m² | - |
| 1777700455 | 3.33° C | 42% | 1025.6 hPa | 0 mm | - | 0 W/m² | - |
* Rain latest hour (hover to see other rain measurements)
** Current wind speed in m/s (hover to see current wind gust speed)